Terminal Aerodrome Forecast
Issued by NWS

Home | Current Version | Previous Version | Graphics & Text | Print | Product List | Glossary On
Versions: 1 2 3 4 5 6 7 8 9 10 11 12 13 14 15 16 17 18 19 20 21 22 23 24 25 26 27 28 29 30 31 32 33 34 35 36 37 38 39 40 41 42 43 44 45 46 47 48 49 50
000
FTUS43 KLOT 011700
TAFGYY
TAF
KGYY 011720Z 0118/0218 24006KT P6SM VCSH SCT050 BKN100
      TEMPO 0118/0120 5SM TSRA BKN050CB
     FM012000 03007KT P6SM VCTS SCT050CB BKN100
     FM012300 11005KT P6SM SCT050
     FM020300 VRB04KT P6SM SCT050
     FM021500 02008KT P6SM SCT050=

USA.gov is the U.S. government's official web portal to all federal, state and local government web resources and services.